アトラス彗星

P/2025 D4 ( ATLAS )

English version
Home page
Updated on August 11, 2025

---------------------------------------------------------------------

・ プロフィール

発見日 2025年2月23日
発見光度 19.2等
発見者 Asteroid Terrestrial-Impact Last Alert System (ATLAS) search program

・ 写真集

・ 軌道要素

Epoch 2025 May 5.0 TT = JDT 2460800.5
T 2025 Feb. 14.28351 TT                                 Pike
q   3.2549435            (2000.0)            P               Q
n   0.03710566     Peri.  332.88909     -0.88470746     +0.41113458
a   8.9024452      Node   233.11999     -0.36219220     -0.90295973
e   0.6343765      Incl.   15.94064     -0.29344424     -0.12502837
P  26.6
From 308 observations 2023 Dec. 10-2025 July 28, mean residual 0".5.

・ 光度変化

        m1 = 2.8 + 5 logΔ + 25.0 log r(t - 70)

---------------------------------------------------------------------

軌道要素はM.P.E.C. 2025-O159に掲載されたものです。
光度グラフはComet for Windowsで作成したものです。

---------------------------------------------------------------------

Copyright(C) Seiichi Yoshida (comet@aerith.net). All rights reserved.